DateTimeUTC,F1_A11,F1_S11,BsB_S11,BsG_S11,BsR_S11,BbsB_S11,BbsG_S11,BbsR_S11,BaB_A11,BaG_A11,BaR_A11,Tu_S11,T_S11,Uu_S11,U_S11,P_S11,T1_A11
2021-11-06T11:00:00Z,00000200,21000000,,,,,,,0000.24,-000.15,-000.13,18.1,25.0,,00.0,0648.2,30.9
2021-11-06T11:01:00Z,00000200,21000000,,,,,,,-000.32,0000.06,0000.09,18.1,25.0,,00.0,0648.2,30.9
2021-11-06T11:02:00Z,00000200,21000000,,,,,,,0000.52,0000.04,0000.21,18.1,25.0,,00.0,0648.2,30.9
2021-11-06T11:03:00Z,00000200,61000000,,,,,,,-000.30,0000.12,-000.15,18.1,25.0,,00.0,0648.2,30.9
2021-11-06T11:04:00Z,00000200,41000000,0000.16,0000.18,0000.13,-000.25,0000.18,0000.04,0000.20,0000.02,0000.21,18.2,24.9,,00.0,0649.1,30.9
2021-11-06T11:05:00Z,00000200,01000000,0000.11,0000.22,-000.17,0000.86,0000.16,0000.03,0000.05,0000.19,0000.19,18.1,24.8,,00.0,0649.1,30.8
2021-11-06T11:06:00Z,00000200,01000000,0000.30,0000.16,0000.03,0000.91,-000.23,-000.03,0000.34,0000.09,-000.02,18.0,24.7,,00.0,0649.1,30.8
2021-11-06T11:07:00Z,00000200,01000000,-000.24,0000.13,-000.26,0000.40,-000.15,-000.02,0000.09,0000.53,-000.17,18.0,24.7,,00.0,0649.2,30.8
2021-11-06T11:08:00Z,00000200,01000000,0000.58,0000.26,0000.35,0000.20,0000.15,0000.08,0000.13,0000.04,0000.36,18.0,24.7,,00.0,0649.1,30.8
2021-11-06T11:09:00Z,00000200,01000000,-000.19,0000.02,0000.05,-000.45,-000.14,0000.25,0000.21,0000.12,0000.29,18.0,24.7,,00.0,0649.2,30.8
2021-11-06T11:10:00Z,00000200,01000000,0000.71,0000.41,-000.05,0000.51,-000.05,0000.07,0000.18,0000.17,-000.26,18.1,24.7,,00.0,0649.2,30.9
2021-11-06T11:11:00Z,00000200,01000000,-000.39,0000.13,0000.05,-000.14,0000.05,0000.11,0000.11,0000.13,0000.57,18.1,24.7,,00.0,0649.2,30.9
2021-11-06T11:12:00Z,00000200,01000000,0000.71,0000.14,0000.13,0000.12,-000.01,0000.12,0000.13,0000.14,-000.16,18.1,24.7,,00.0,0649.2,30.9
2021-11-06T11:13:00Z,00000200,01000000,0000.55,0000.21,0000.21,0000.10,-000.21,-000.06,0000.16,0000.13,0000.43,18.1,24.7,,00.0,0649.2,30.9
2021-11-06T11:14:00Z,00000200,01000000,0000.66,-000.15,-000.01,0000.20,0000.12,0000.30,0000.44,0000.29,-000.01,18.2,24.7,,00.0,0649.2,30.9
2021-11-06T11:15:00Z,00000200,01000000,0000.14,0000.20,0000.00,0000.21,-000.10,0000.36,0000.18,0000.36,0000.36,18.2,24.7,,00.0,0649.1,30.9
2021-11-06T11:16:00Z,00000200,01000000,-000.05,-000.11,0000.26,-000.23,-000.17,-000.00,-000.07,-000.01,-000.06,18.2,24.7,,00.0,0649.1,30.9
2021-11-06T11:17:00Z,00000200,01000000,-000.44,0000.24,0000.06,0000.39,0000.22,-000.06,0000.59,0000.16,0000.14,18.3,24.7,,00.0,0649.1,30.9
2021-11-06T11:18:00Z,00000200,01000000,-000.07,0000.27,0000.00,-000.28,0000.33,-000.08,0000.04,-000.12,0000.05,18.3,24.8,,00.0,0649.2,30.9
2021-11-06T11:19:00Z,00000200,01000000,0000.50,0000.04,0000.28,0000.86,0000.01,0000.76,0000.29,0000.82,0000.24,18.3,24.8,,00.0,0649.2,30.9
2021-11-06T11:20:00Z,00000200,01000000,0001.13,0000.25,0000.06,0000.05,-000.20,0000.23,-000.05,-000.41,0000.30,18.3,24.8,,00.0,0649.2,30.9
2021-11-06T11:21:00Z,00000200,01000000,0000.36,0000.43,0000.20,0000.15,0000.04,0000.11,0000.18,0000.54,-000.27,18.3,24.8,,00.0,0649.2,30.9
2021-11-06T11:22:00Z,00000200,01000000,-000.87,0000.02,0000.16,-000.64,0000.17,0000.07,-000.25,-000.04,-000.09,18.2,24.7,,00.0,0649.1,30.9
2021-11-06T11:23:00Z,00000200,01000000,0000.38,-000.24,0000.15,-000.14,0000.26,0000.17,0000.58,0000.16,0000.32,18.2,24.8,,00.0,0649.1,30.9
2021-11-06T11:24:00Z,00000200,01000000,0000.62,0000.14,0000.27,0000.45,-000.21,0000.36,0000.10,0000.15,0000.11,18.3,24.7,,00.0,0649.1,30.9
2021-11-06T11:25:00Z,00000200,01000000,0000.86,0000.12,0000.46,-000.14,-000.14,0000.50,0000.21,0000.05,-000.03,18.3,24.7,,00.0,0649.1,30.9
2021-11-06T11:26:00Z,00000200,01000000,0000.27,0000.14,0000.06,0000.51,-000.05,0000.26,0000.50,0000.23,0000.61,18.3,24.8,,00.0,0649.1,30.9
2021-11-06T11:27:00Z,00000200,01000000,0000.44,0000.38,-000.06,0000.03,-000.06,0000.28,-000.23,0000.02,-000.19,18.3,24.8,,00.0,0649.2,30.9
2021-11-06T11:28:00Z,00000200,01000000,0000.16,0000.11,0000.26,0000.31,-000.10,0000.57,0000.01,-000.05,0000.17,18.4,24.8,,00.0,0649.2,30.9
2021-11-06T11:29:00Z,00000200,01000000,0000.51,-000.12,0000.18,0000.02,-000.12,0000.15,0000.20,0000.39,0000.13,18.4,24.8,,00.0,0649.2,30.9
2021-11-06T11:30:00Z,00000200,01000000,-000.15,0000.25,0000.21,0000.07,0000.24,0000.19,0000.30,-000.03,-000.05,18.4,24.8,,00.0,0649.2,30.9
2021-11-06T11:31:00Z,00000200,01000000,0000.09,-000.09,0000.10,-000.61,-000.14,0000.33,0000.00,0000.08,-000.01,18.4,24.8,,00.0,0649.2,30.9
2021-11-06T11:32:00Z,00000200,01000000,0000.79,0000.14,0000.02,0000.69,-000.16,-000.05,-000.03,0000.18,-000.15,18.4,24.8,,00.0,0649.2,30.9
2021-11-06T11:33:00Z,00000200,01000000,0000.72,0000.28,0000.06,0000.42,0000.35,0000.21,0000.09,0000.16,0000.49,18.3,24.8,,00.0,0649.1,30.9
2021-11-06T11:34:00Z,00000200,01000000,0000.01,0000.29,0000.18,-000.15,0000.15,-000.00,0000.24,-000.01,0000.06,18.2,24.8,,00.0,0649.1,30.9
2021-11-06T11:35:00Z,00000200,01000000,-000.14,0000.24,-000.14,0000.50,0000.09,0000.24,0000.45,0000.05,-000.08,18.1,24.7,,00.0,0649.1,30.8
2021-11-06T11:36:00Z,00000200,01000000,-000.25,0000.36,0000.07,-000.08,-000.12,0000.27,-000.29,0000.14,-000.18,18.0,24.6,,00.0,0649.1,30.8
2021-11-06T11:37:00Z,00000200,01000000,0000.90,0000.22,0000.14,0000.30,-000.26,-000.24,0000.34,-000.17,0000.03,18.0,24.6,,00.0,0649.1,30.8
2021-11-06T11:38:00Z,00000200,01000000,0000.27,0000.09,-000.06,0000.02,0000.02,0000.19,-000.21,0000.04,0000.29,18.0,24.6,,00.0,0649.1,30.8
2021-11-06T11:39:00Z,00000200,01000000,0000.27,0000.19,-000.26,-000.08,0000.25,-000.02,0000.27,0000.50,-000.01,18.0,24.6,,00.0,0649.1,30.8
2021-11-06T11:40:00Z,00000200,01000000,-000.24,0000.22,0000.07,0000.06,-000.02,0000.41,0000.10,0000.04,0000.20,18.1,24.6,,00.0,0649.0,30.9
2021-11-06T11:41:00Z,00000200,01000000,0000.40,0000.47,0000.13,-000.13,0000.02,0000.10,0000.10,0000.30,0000.19,18.1,24.6,,00.0,0649.0,30.9
2021-11-06T11:42:00Z,00000200,01000000,0000.90,0000.14,0000.21,0000.46,0000.04,0000.19,0000.33,0000.13,-000.12,18.1,24.6,,00.0,0649.0,30.9
2021-11-06T11:43:00Z,00000200,01000000,0000.48,0000.55,0000.08,0000.66,0000.29,0000.10,0000.30,0000.20,0000.18,18.2,24.7,,00.0,0649.0,30.9
2021-11-06T11:44:00Z,00000200,01000000,0001.09,0000.11,0000.24,0000.21,-000.01,-000.04,0000.09,0000.10,0000.05,18.2,24.6,,00.0,0649.0,30.9
2021-11-06T11:45:00Z,00000200,01000000,0000.70,0000.02,0000.08,0000.53,-000.25,0000.27,-000.06,-000.06,0000.36,18.2,24.7,,00.0,0648.9,30.9
2021-11-06T11:46:00Z,00000200,01000000,0000.19,0000.14,0000.01,-000.23,-000.03,0000.22,0000.37,0000.47,-000.29,18.2,24.7,,00.0,0648.9,30.9
2021-11-06T11:47:00Z,00000200,01000000,0000.37,0000.47,-000.14,-000.40,-000.05,0000.09,-000.10,-000.04,0000.38,18.2,24.7,,00.0,0648.9,30.9
2021-11-06T11:48:00Z,00000200,01000000,0000.13,-000.03,0000.10,0000.09,0000.16,0000.37,0000.33,0000.09,0000.32,18.1,24.6,,00.0,0648.9,30.9
2021-11-06T11:49:00Z,00000200,01000000,0000.39,0000.02,-000.15,0000.24,-000.16,-000.11,0000.21,0000.11,-000.36,18.1,24.6,,00.0,0648.9,30.9
2021-11-06T11:50:00Z,00000200,01000000,-000.05,0000.27,0000.16,0000.94,0000.03,0000.39,-000.09,-000.13,-000.11,17.9,24.6,,00.0,0648.9,30.8
2021-11-06T11:51:00Z,00000200,01000000,0000.28,0000.25,0000.12,0000.62,-000.31,-000.09,-000.42,0000.11,0000.25,17.8,24.5,,00.0,0648.8,30.8
2021-11-06T11:52:00Z,00000200,01000000,0000.44,-000.01,-000.07,0000.30,0000.16,0000.04,0000.46,-000.07,0000.10,17.8,24.5,,00.0,0648.8,30.8
2021-11-06T11:53:00Z,00000200,01000000,0000.08,0000.49,0000.02,0000.12,-000.04,0000.41,0000.03,0000.26,-000.04,17.7,24.5,,00.0,0648.8,30.8
2021-11-06T11:54:00Z,00000200,01000000,0000.50,0000.28,-000.02,-000.15,-000.31,0000.43,0000.10,0000.22,0000.08,17.7,24.4,,00.0,0648.8,30.8
2021-11-06T11:55:00Z,00000200,01000000,-000.20,0000.42,0000.20,-000.03,0000.06,0000.24,-000.29,-000.22,-000.14,17.7,24.4,,00.0,0648.8,30.8
2021-11-06T11:56:00Z,00000200,01000000,0000.79,0000.20,0000.25,0000.15,-000.20,0000.12,0000.47,-000.23,0000.04,17.7,24.4,,00.0,0648.8,30.8
2021-11-06T11:57:00Z,00000200,41000000,,,,,,,0000.46,0000.97,0000.89,17.7,24.4,,00.0,0648.9,30.8
2021-11-06T11:58:00Z,00000200,61000000,,,,,,,-000.32,-000.59,-000.91,17.4,24.6,,00.0,0647.9,30.9
2021-11-06T11:59:00Z,00000200,21000000,,,,,,,-000.55,-000.36,-000.38,17.4,24.7,,00.0,0647.9,30.9
